This demonstration page uses our WeatherBlox Daily Observations layout. Learn more.

Left ArrowRight Arrow

36.17497, -115.13722

Hourly Observations for February 28, 2019

Temp ( °F °C ) Dew Point ( °F °C ) Humidity (%) Winds ( mph kmh ) Pressure ( in mb ) Visibility ( mi km ) Precip ( " mm )
12:53 am 00:53 Clear 61 16.1 43 6.1 52 52 SSW 24 39 29.96 1015 10 16 0.00 0.00
1:53 am 01:53 Clear 61 16.1 42 5.6 50 50 SSW 28 44 29.93 1013 10 16 0.00 0.00
2:53 am 02:53 Clear 60 15.6 43 6.1 53 53 SSW 18 30 29.93 1014 10 16 0.00 0.00
3:53 am 03:53 Clear 59 15 44 6.7 58 58 SSW 17 28 29.94 1014 10 16 0.00 0.00
4:53 am 04:53 Clear 59 15 43 6.1 56 56 NW 8 13 29.95 1014 10 16 0.00 0.00
5:53 am 05:53 Clear 53 11.7 42 5.6 66 66 NW 7 11 29.97 1015 10 16 0.00 0.00
6:53 am 06:53 Sunny 53 11.7 43 6.1 69 69 W 3 6 30.00 1016 10 16 0.00 0.00
7:53 am 07:53 Sunny 56 13.3 41 5 57 57 NNW 7 11 30.01 1016 10 16 0.00 0.00
8:53 am 08:53 Sunny 60 15.6 42 5.6 52 52 N 7 11 30.03 1017 10 16 0.00 0.00
9:53 am 09:53 Sunny 64 17.8 41 5 43 43 NNE 6 9 30.02 1017 10 16 0.00 0.00
10:53 am 10:53 Sunny 64 17.8 41 5 43 43 Calm 30.00 1016 10 16 0.00 0.00
11:53 am 11:53 Sunny 68 20 40 4.4 36 36 VRB 5 7 29.99 1016 10 16 0.00 0.00
12:53 pm 12:53 Sunny 69 20.6 38 3.3 32 32 Calm 29.96 1014 10 16 0.00 0.00
1:53 pm 13:53 Sunny 72 22.2 37 2.8 28 28 SE 5 7 29.91 1013 10 16 0.00 0.00
2:53 pm 14:53 Sunny 73 22.8 36 2.2 26 26 SSE 15 24 29.88 1012 10 16 0.00 0.00
3:53 pm 15:53 Sunny 73 22.8 33 0.6 23 23 SW 16 26 29.87 1012 10 16 0.00 0.00
4:53 pm 16:53 Sunny 71 21.7 34 1.1 26 26 SW 17 28 29.88 1012 10 16 0.00 0.00
5:53 pm 17:53 Clear 69 20.6 35 1.7 29 29 SW 17 28 29.91 1013 10 16 0.00 0.00
6:53 pm 18:53 Clear 67 19.4 35 1.7 31 31 SW 9 15 29.92 1013 10 16 0.00 0.00
7:53 pm 19:53 Clear 66 18.9 33 0.6 29 29 SSW 9 15 29.93 1014 10 16 0.00 0.00
8:53 pm 20:53 Clear 64 17.8 33 0.6 32 32 S 9 15 29.93 1014 10 16 0.00 0.00
9:53 pm 21:53 Clear 63 17.2 34 1.1 34 34 S 10 17 29.94 1014 10 16 0.00 0.00
10:53 pm 22:53 Clear 62 16.7 33 0.6 34 34 SW 7 11 29.93 1014 10 16 0.00 0.00
11:53 pm 23:53 Clear 60 15.6 35 1.7 39 39 SW 3 6 29.93 1014 10 16 0.00 0.00

Powered by AerisWeather